Regional Weather Roundup
Issued by NWS

Home | Current Version | Previous Version | Graphics & Text | Print | Product List | Glossary On
Versions: 1 2 3 4 5 6 7 8 9 10 11 12 13 14 15 16 17 18 19 20 21 22 23 24 25 26 27 28 29 30 31 32 33 34 35 36 37 38 39 40 41 42 43 44 45 46 47 48 49 50
000
ASUS43 KOAX 311610
RWRNE

WEATHER ROUNDUP FOR NEBRASKA
NATIONAL WEATHER SERVICE OMAHA NE
1000 AM CST SAT JAN 31 2015

NOTES: SATELLITE DATA IS BEING USED TO AUGMENT CLOUD COVER ABOVE
       12000 FEET.
       "FAIR" INDICATES FEW OR NO CLOUDS BELOW 12,000 FEET WITH NO
       SIGNIFICANT WEATHER AND/OR OBSTRUCTIONS TO VISIBILITY.

  * THESE STATIONS DO NOT REPORT WEATHER SUCH AS RAIN...SNOW OR FOG.

NEZ001>004-019>022-054>056-311700-
NEBRASKA PANHANDLE

CITY           SKY/WX    TMP DP  RH WIND       PRES   REMARKS
SCOTTSBLUFF    LGT SNOW  33  28  81 CALM      29.95R
ALLIANCE       CLOUDY    32  27  81 N8        29.93S WCI  25
CHADRON        CLOUDY    29  24  82 CALM      29.98F
KIMBALL        FLURRIES  31  29  92 N9        29.89F WCI  23
SIDNEY         LGT SNOW  31  29  92 N7        29.92S FOG     WCI  24
$$

NEZ057>060-069>072-079>082-311700-
SOUTHWEST NEBRASKA

CITY           SKY/WX    TMP DP  RH WIND       PRES   REMARKS
NORTH PLATTE   CLOUDY    33  31  92 SE5       29.97S WCI  29
IMPERIAL       FOG       33  31  92 E9        29.92F VSB 1/4 WCI  25
LEXINGTON      CLOUDY    33  32  96 SE9       29.99S FOG     WCI  25
MCCOOK         FOG       34  33  96 E6        29.96S VSB 3/4 WCI  29
OGALLALA       FOG       33  33 100 CALM      29.94F VSB 1/2
$$

NEZ005>010-023>029-035>040-094-311700-
NORTH CENTRAL NEBRASKA

CITY           SKY/WX    TMP DP  RH WIND       PRES   REMARKS
VALENTINE      CLOUDY    28  25  88 NE15      30.02S WCI  16
AINSWORTH      CLOUDY    30  28  90 NE12      30.01S WCI  21
BROKEN BOW     CLOUDY    34  31  88 SE7       29.99S WCI  28
O`NEILL        CLOUDY    31  29  93 N7        30.04F WCI  24
ORD            CLOUDY    34  30  85 SE6       30.01F WCI  29
THEDFORD       LGT RAIN  35  34  98 SE3       29.98R VSB 1/4
$$

NEZ041-046>049-061>064-073>077-083>087-311700-
SOUTH CENTRAL NEBRASKA

CITY           SKY/WX    TMP DP  RH WIND       PRES   REMARKS
GRAND ISLAND   LGT SNOW  32  31  96 S9        30.06S FOG     WCI  24
AURORA         LGT SNOW  33  33 100 S12       30.06S WCI  24
HASTINGS       LGT SNOW  32  30  92 S8        30.04S FOG     WCI  25
HEBRON         LGT SNOW  33  31  94 S10       30.10F WCI  25
HOLDREGE       CLOUDY    33  32  97 S9        30.00F FOG     WCI  25
KEARNEY *      CLOUDY    34  30  86 S10       30.03R WCI  26
YORK           LGT SNOW  32  32 100 S12       30.08S WCI  23
$$

NEZ011>018-030>034-042>045-311700-
NORTHEAST NEBRASKA

CITY           SKY/WX    TMP DP  RH WIND       PRES   REMARKS
NORFOLK        CLOUDY    36  33  89 S8        30.07S WCI  30
ALBION         CLOUDY    35  31  87 S5        30.05F WCI  31
BLAIR          CLOUDY    37  34  89 S10       30.12S WCI  30
COLUMBUS *     CLOUDY    36  28  75 S9        30.10F WCI  29
FREMONT        CLOUDY    37  35  93 S7        30.12F WCI  31
TEKAMAH        CLOUDY    38  34  85 S14       30.13F WCI  30
WAYNE          CLOUDY    37  33  85 S9        30.09S WCI  31
$$

NEZ050>053-065>068-078-088>093-311700-
SOUTHEAST NEBRASKA

CITY           SKY/WX    TMP DP  RH WIND       PRES   REMARKS
LINCOLN        LGT SNOW  34  32  92 S10       30.14S FOG     WCI  26
OMAHA EPPLEY   LGT RAIN  36  34  92 S10       30.15F WCI  28
BEATRICE       LGT SNOW  33  32  99 SE10      30.13F WCI  24
FALLS CITY     RAIN      35  34  96 SE6       30.19F FOG     WCI  30
NEBRASKA CITY  RAIN      34  34  99 S16       30.16S WCI  24
PLATTSMOUTH    MIX PCPN  34  32  94 S10       30.15S WCI  26
$$

NEZ044-045-051>053-067-311700-
OMAHA AREA

CITY           SKY/WX    TMP DP  RH WIND       PRES   REMARKS
OMAHA EPPLEY   LGT RAIN  36  34  92 S10       30.15F WCI  28
BLAIR          CLOUDY    37  34  89 S10       30.12S WCI  30
FREMONT        CLOUDY    37  35  93 S7        30.12F WCI  31
MILLARD        LGT RAIN  35  33  93 S5        30.15S WCI  31
OFFUTT AFB     FLURRIES  34  32  93 SE6       30.15S WCI  29
PLATTSMOUTH    MIX PCPN  34  32  94 S10       30.15S WCI  26
WAHOO          LGT RAIN  35  32  90 S7        30.12S WCI  29
$$



USA.gov is the U.S. government's official web portal to all federal, state and local government web resources and services.